Weather History for Manistique, MI

Change the Weather History Date:

Tuesday, October 1, 2013

  Actual Average Record
Temperature  
Mean Temperature 56 °F -  
Max Temperature 65 °F 59 °F 79 °F (1971)
Min Temperature 48 °F 41 °F 26 °F (1955)
Degree Days  
Heating Degree Days 8    
Growing Degree Days 6 (Base 50)    
Moisture  
Dew Point 58 °F    
Average Humidity 90    
Maximum Humidity 100    
Minimum Humidity 82    
Precipitation  
Precipitation 0.00 in - - ()
Sea Level Pressure  
Sea Level Pressure 29.76 in    
Wind  
Wind Speed 9 mph (SSW)    
Max Wind Speed 18 mph    
Max Gust Speed 29 mph    
Visibility 8 miles    
Events Fog    
Averages and records for this station are not official NWS values.
T = Trace of Precipitation, MM = Missing Value Source: NWS Daily Summary

Daily Weather History Graph

Daily Weather History Graph

Search for Another Location

Airport:

Trip Planner

Search our weather history database for the weather conditions in past years. The results will help you decide how hot, cold, wet, or windy it might be!

Date:

Astronomy

Oct. 01, 2013 Rise Set
Actual Time 7:43 AM EDT 7:24 PM EDT
Civil Twilight 7:13 AM EDT 7:53 PM EDT
Nautical Twilight 6:38 AM EDT 8:28 PM EDT
Astronomical Twilight 6:03 AM EDT 9:03 PM EDT
Moon 4:07 AM EDT (10/1) 5:35 PM EDT (10/1)
Length of Visible Light 12h 40m
Length of Day
11h 40m
Waning Crescent, 12% of the Moon is Illuminated
Oct 1
Waning Crescent
Oct 4
New
Oct 11
First Quarter
Oct 18
Full
Oct 26
Last Quarter

Hourly Weather History & Observations

Time (EDT) Temp. Dew Point Humidity Pressure Visibility Wind Dir Wind Speed Gust Speed Precip Events Conditions
12:17 AM 60.4 °F 56.1 °F 86% 29.82 in 10.0 mi South 9.2 mph - N/A   Clear
12:37 AM 60.3 °F 56.3 °F 87% 29.82 in 10.0 mi SSW 10.4 mph - N/A   Clear
12:56 AM 60.3 °F 56.7 °F 88% 29.82 in 10.0 mi South 10.4 mph - N/A   Clear
1:17 AM 60.1 °F 56.7 °F 88% 29.81 in 10.0 mi SSW 8.1 mph - N/A   Clear
1:37 AM 60.3 °F 56.8 °F 88% 29.82 in 10.0 mi SSW 6.9 mph - N/A   Clear
1:56 AM 59.9 °F 57.2 °F 91% 29.82 in 10.0 mi SSW 8.1 mph - N/A   Clear
2:17 AM 59.9 °F 57.4 °F 91% 29.82 in 10.0 mi SSW 8.1 mph - N/A   Clear
2:37 AM 59.7 °F 57.6 °F 93% 29.82 in 10.0 mi SSW 8.1 mph - N/A   Clear
2:57 AM 59.9 °F 58.1 °F 94% 29.81 in 10.0 mi SSW 8.1 mph - N/A   Clear
3:17 AM 59.9 °F 58.1 °F 94% 29.81 in 10.0 mi South 10.4 mph - N/A   Clear
3:37 AM 60.1 °F 58.3 °F 94% 29.80 in 10.0 mi South 9.2 mph - N/A   Clear
3:57 AM 60.3 °F 58.5 °F 94% 29.79 in 10.0 mi SSW 9.2 mph - N/A   Clear
4:17 AM 60.3 °F 58.6 °F 94% 29.79 in 10.0 mi South 9.2 mph - N/A   Clear
4:36 AM 60.1 °F 58.5 °F 94% 29.78 in 10.0 mi South 8.1 mph - N/A   Clear
4:57 AM 60.1 °F 58.6 °F 95% 29.78 in 10.0 mi South 8.1 mph - N/A   Clear
5:17 AM 60.1 °F 58.5 °F 94% 29.77 in 10.0 mi South 5.8 mph - N/A   Clear
5:36 AM 60.3 °F 58.6 °F 94% 29.77 in 10.0 mi SSW 8.1 mph - N/A   Clear
5:57 AM 60.1 °F 58.6 °F 95% 29.77 in 10.0 mi SSW 6.9 mph - N/A   Clear
6:17 AM 60.4 °F 58.8 °F 94% 29.77 in 10.0 mi SSW 5.8 mph - N/A   Clear
6:37 AM 59.5 °F 58.1 °F 95% 29.76 in 10.0 mi SSW 6.9 mph - N/A   Clear
6:57 AM 59.5 °F 58.1 °F 95% 29.76 in 10.0 mi SSW 6.9 mph - N/A   Clear
7:17 AM 59.7 °F 57.9 °F 94% 29.76 in 10.0 mi SSW 8.1 mph - N/A   Clear
7:37 AM 59.9 °F 57.6 °F 92% 29.76 in 10.0 mi SSW 8.1 mph - N/A   Clear
7:57 AM 59.5 °F 57.2 °F 92% 29.75 in 10.0 mi SSW 6.9 mph - N/A   Clear
8:16 AM 59.9 °F 57.7 °F 93% 29.75 in 10.0 mi SSW 6.9 mph - N/A   Clear
8:37 AM 61.0 °F 58.1 °F 90% 29.75 in 10.0 mi SSW 6.9 mph - N/A   Clear
8:57 AM 61.9 °F 58.5 °F 89% 29.74 in 10.0 mi South 10.4 mph - N/A   Clear
9:16 AM 62.6 °F 58.5 °F 86% 29.73 in 10.0 mi South 10.4 mph 17.3 mph N/A   Clear
9:37 AM 63.1 °F 58.8 °F 86% 29.74 in 10.0 mi SSW 9.2 mph - N/A   Clear
9:56 AM 62.6 °F 58.6 °F 87% 29.74 in 10.0 mi SSW 10.4 mph - N/A   Clear
10:17 AM 63.5 °F 58.8 °F 85% 29.75 in 10.0 mi SSW 10.4 mph 17.3 mph N/A   Clear
10:37 AM 64.0 °F 59.0 °F 84% 29.73 in 10.0 mi South 11.5 mph 17.3 mph N/A   Clear
10:57 AM 64.4 °F 59.2 °F 83% 29.73 in 10.0 mi South 11.5 mph 17.3 mph N/A   Clear
11:17 AM 64.6 °F 59.4 °F 83% 29.74 in 10.0 mi SSW 11.5 mph 18.4 mph N/A   Clear
11:37 AM 65.3 °F 59.5 °F 82% 29.73 in 10.0 mi SSW 13.8 mph 20.7 mph N/A   Clear
11:57 AM 65.3 °F 59.7 °F 82% 29.71 in 10.0 mi South 13.8 mph 18.4 mph N/A   Clear
12:17 PM 63.9 °F 59.4 °F 85% 29.71 in 10.0 mi SSW 10.4 mph 16.1 mph N/A   Clear
12:36 PM 65.3 °F 59.9 °F 83% 29.70 in 10.0 mi SSW 11.5 mph 21.9 mph N/A   Clear
12:57 PM 65.5 °F 59.9 °F 82% 29.70 in 10.0 mi SSW 15.0 mph 21.9 mph N/A   Clear
1:17 PM 64.0 °F 59.7 °F 86% 29.71 in 10.0 mi SSW 16.1 mph 24.2 mph N/A   Clear
1:37 PM 65.3 °F 60.1 °F 83% 29.71 in 10.0 mi SSW 17.3 mph 26.5 mph N/A   Clear
1:57 PM 64.9 °F 59.7 °F 83% 29.70 in 10.0 mi SSW 18.4 mph 27.6 mph N/A   Clear
2:17 PM 64.6 °F 59.5 °F 84% 29.70 in 10.0 mi SSW 17.3 mph 27.6 mph N/A   Clear
2:37 PM 64.6 °F 59.5 °F 84% 29.70 in 10.0 mi SSW 16.1 mph 25.3 mph N/A   Clear
2:57 PM 64.4 °F 59.5 °F 84% 29.71 in 10.0 mi SSW 17.3 mph 28.8 mph N/A   Clear
3:16 PM 64.6 °F 59.5 °F 84% 29.70 in 10.0 mi SSW 18.4 mph 25.3 mph N/A   Clear
3:37 PM 64.6 °F 59.7 °F 84% 29.70 in 10.0 mi SSW 16.1 mph 24.2 mph N/A   Clear
3:57 PM 64.8 °F 59.9 °F 84% 29.71 in 10.0 mi SSW 15.0 mph 26.5 mph N/A   Clear
4:16 PM 64.9 °F 59.9 °F 84% 29.71 in 10.0 mi SSW 17.3 mph 21.9 mph N/A   Clear
4:37 PM 64.9 °F 60.1 °F 84% 29.72 in 10.0 mi SSW 16.1 mph 23.0 mph N/A   Clear
4:57 PM 64.4 °F 60.1 °F 86% 29.72 in 10.0 mi SSW 15.0 mph 20.7 mph N/A   Clear
5:17 PM 64.2 °F 60.3 °F 87% 29.72 in 10.0 mi SSW 12.7 mph 21.9 mph N/A   Clear
5:37 PM 63.1 °F 60.1 °F 90% 29.73 in 7.0 mi SW 13.8 mph 24.2 mph N/A   Clear
5:57 PM 63.0 °F 59.9 °F 90% 29.73 in 7.0 mi SSW 11.5 mph 19.6 mph N/A   Clear
6:17 PM 62.6 °F 59.9 °F 91% 29.73 in 7.0 mi SSW 12.7 mph 20.7 mph N/A   Clear
6:37 PM 62.2 °F 59.9 °F 92% 29.74 in 7.0 mi SW 13.8 mph 20.7 mph N/A   Clear
6:56 PM 61.7 °F 59.9 °F 94% 29.74 in 5.0 mi SSW 12.7 mph 21.9 mph N/A   Clear
7:17 PM 61.5 °F 59.5 °F 93% 29.75 in 5.0 mi West 4.6 mph 21.9 mph N/A   Scattered Clouds
7:36 PM 61.5 °F 59.0 °F 91% 29.75 in 7.0 mi South 5.8 mph - N/A   Scattered Clouds
7:57 PM 59.9 °F 58.3 °F 94% 29.76 in 10.0 mi SSW 3.5 mph - N/A   Clear
8:17 PM 57.4 °F 56.3 °F 96% 29.77 in 7.0 mi Calm Calm - N/A   Clear
8:36 PM 55.4 °F 54.9 °F 98% 29.78 in 1.5 mi Calm Calm - N/A   Mist
8:57 PM 54.7 °F 54.5 °F 99% 29.78 in 0.8 mi Calm Calm - N/A   Mist
9:16 PM 52.5 °F 52.2 °F 99% 29.78 in 1.8 mi Calm Calm - N/A   Mist
9:37 PM 52.2 °F 52.0 °F 99% 29.79 in 0.2 mi SSW 3.5 mph - N/A Fog Fog
9:57 PM 51.8 °F 51.6 °F 99% 29.79 in 1.0 mi Calm Calm - N/A   Mostly Cloudy
10:17 PM 52.7 °F 52.7 °F 100% 29.80 in 2.0 mi West 4.6 mph - N/A   Clear
10:37 PM 53.2 °F 53.2 °F 100% 29.81 in 1.8 mi Calm Calm - N/A   Scattered Clouds
10:57 PM 48.9 °F 48.7 °F 99% 29.81 in 0.2 mi West 3.5 mph - N/A Fog Fog
11:17 PM 49.1 °F 49.1 °F 100% 29.82 in 1.2 mi West 4.6 mph - N/A   Scattered Clouds
11:37 PM 52.3 °F 51.6 °F 97% 29.82 in 10.0 mi West 4.6 mph - N/A   Clear
11:56 PM 54.1 °F 50.4 °F 87% 29.83 in 10.0 mi West 8.1 mph - N/A   Clear